www.pogodaiklimat.ru
ПОГОДА в Ривертоне
Время
и дата
17:53 05.02
18:53 05.02
19:53 05.02
20:53 05.02
21:53 05.02
22:53 05.02
23:53 05.02
00:53 06.02
01:53 06.02
02:53 06.02
03:53 06.02
04:53 06.02
05:53 06.02
06:53 06.02
07:53 06.02
08:53 06.02
09:53 06.02
10:53 06.02
12:53 06.02
13:53 06.02
14:53 06.02
15:53 06.02
16:53 06.02
17:53 06.02
18:53 06.02
19:53 06.02
20:53 06.02
21:53 06.02
22:53 06.02
23:53 06.02
00:53 07.02
01:53 07.02
02:53 07.02
03:53 07.02
04:53 07.02
05:53 07.02
06:53 07.02
07:53 07.02
08:53 07.02
10:53 07.02
11:53 07.02
12:53 07.02
13:53 07.02
14:53 07.02
15:53 07.02
16:53 07.02
17:53 07.02
18:53 07.02
Ветер
(напр.,м/с)
Видим. Явления Облачность Т
(С)
Тd
(С)
f
(%)
Тe
(С)
Тes
(С)
Комфортность P
(гПа)
Po
(гПа)
Тmin
(С)
Tmax
(С)
R
(мм)
R24
(мм)
S
(см)
СЗ 6 16 км ясно -7.8 -11.1 77 -16 -16 1012.5 821.2
ЮЗ 5 16 км ясно -5.6 -9.4 75 -13 -13 1013.1 821.4
ЮЗ 3 16 км ясно -6.7 -10.0 77 -12 -12 1012.8 821.4
ЮЗ 5 16 км ясно -7.2 -10.6 77 -15 -15 1012.5 821.7
ЮЗ 6 16 км ясно -6.1 -10.0 74 -14 -14 1012.0 821.4
З 5 16 км 10/0 2700 m
[Ac]
-5.0 -9.4 71 -12 -12 1011.5 821.7 -7.8 -3.9
З 5 16 км 10/0 3000 m
[Ac]
-5.0 -10.0 68 -12 -12 1010.6 821.4
З 8 16 км 10/0 2550 m
[Ac]
-2.8 -8.9 63 -11 -11 1009.5 820.9
З 8 16 км 5/0 2250 m
[Ac]
-2.2 -8.9 60 -10 -10 1009.2 820.9
СЗ 13
{19}
16 км 10/0 2100 m
[Ac]
-1.1 -7.2 63 -10 -10 1009.2 821.2
СЗ 12 16 км 10/0 2100 m
[Ac]
-1.1 -7.2 63 -10 -10 1010.2 821.7
СЗ 10 16 км 8/0 3300 m
[Ac]
-2.2 -7.8 65 -11 -11 1011.0 822.0 -5.6 -0.6
СЗ 10 16 км 10/0 2400 m
[Ac]
-1.7 -7.2 66 -10 -10 1012.5 822.8
СЗ 9 16 км н/о -1.7 -7.8 63 -10 -10 1012.7 823.4
СЗ 7 н/о 10/8 1800 m
[Ac]
-3.3 -7.8 71 -11 -11 1015.3 824.8
16 км н/о -3.9 -8.3 71 -5 -5 1016.9 825.9
штиль 0 16 км 10/0 2100 m
[Ac]
-1.1 -7.8 60 -2 -1 1017.1 826.7
н/о н/о 827.5 -4.4 -0.6
н/о н/о 828.1
н/о н/о 0.0 -5.0 69 -1 -1 1017.8 828.3
Ю 3 16 км 5/0 2700 m
[Ac]
+0.6 -5.0 66 -4 -1 1018.4 828.9
Ю 3 16 км ясно 0.0 -5.0 69 -4 -2 1018.9 829.2
Ю 4 16 км ясно -0.6 -5.6 69 -6 -5 1019.4 829.5
Ю 4 16 км ясно -1.7 -6.7 69 -7 -7 1020.3 830.0
Ю 4 16 км ясно -3.3 -7.8 71 -9 -9 1020.9 830.3
ЮЗ 4 16 км ясно -4.4 -8.9 71 -10 -10 1021.5 830.3
ЮЗ 3 16 км ясно -3.3 -8.9 65 -8 -8 1021.6 830.6
ЮЗ 5 16 км ясно -7.2 -10.0 80 -15 -15 1022.9 830.8
З 8 16 км ясно -5.6 -10.6 68 -14 -14 1022.4 831.1 -7.2 -1.1
З 6 16 км ясно -6.7 -12.2 65 -15 -15 831.4
З 6 16 км ясно -6.1 -11.7 65 -14 -14 831.4
ЮЗ 4 16 км ясно -7.2 -13.3 62 -14 -14 1023.1 831.4
ЮЗ 4 16 км ясно -7.2 -13.3 62 -14 -14 1023.2 831.7
ЮЗ 5 16 км ясно -8.3 -13.9 64 -16 -16 1023.5 831.7
ЮЗ 3 16 км ясно -9.4 -15.0 64 -15 -15 1024.2 831.7 -10.0 -5.6
СЗ 3 16 км ясно -12.2 -15.0 80 -18 -18 1025.3 831.9
штиль 0 16 км ясно -12.8 -13.3 96 -13 -13 1026.4 832.5
ЮВ 3 16 км ясно -11.1 -14.4 77 -17 -17 1027.2 833.0
нст 2 16 км ясно -11.7 -15.6 73 -16 -16 1027.5 833.6
штиль 0 16 км ясно -9.4 -12.8 76 -10 -5 1028.3 833.9 -13.9 -7.2
16 км ясно -8.3 -12.2 73 -9 -2 1028.1 833.9
С 2 16 км ясно -6.7 -11.1 71 -11 -5 1027.0 833.6
В 2 16 км ясно -5.0 -9.4 71 -9 -3 1026.7 833.3
штиль 0 16 км ясно -6.1 -10.0 74 -7 -1 1026.7 833.0
штиль 0 16 км ясно -6.7 -10.6 74 -7 -4 1026.9 833.0
С 2 16 км ясно -7.2 -11.1 74 -11 -10 1027.0 833.0 -9.4 -5.0
С 3 16 км ясно -11.1 -13.9 80 -17 -17 1028.9 833.0
СЗ 4 16 км ясно -12.2 -14.4 84 -19 -19 1029.2 833.0
Местоположение метеостанции Riverton Regional Airport: широта 43.0619 долгота -108.4464 высота над уровнем моря 1684 м.
В архиве по умолчанию представлена погода в Ривертоне за последние 1-2 суток. Обновление информации о фактической погоде в базе происходит ежечасно! Архивные данные за месяц целиком и за предыдущие месяцы Вы можете получить, выбрав интересующий диапазон дат из раскрывающегося списка и нажав кнопку "Ввод!".
Внимание! Архив погоды МЕТАР в базе сайта по станциям, не включенным в климатический монитор, хранится не более 60 дней. Нет смысла пытаться выбрать более раннюю дату.
*Определитесь, кто Вы:
Внимание! Время в таблицах - местное (без учета летнего времени). Для получения всемирного времени необходимо вычесть поправку, которая равна -7 ч.
Смотрите также архив погоды в соседних городах и на ближайших метеорологических станциях:
Партнеры нашего сайта:      
Пояснения к столбцам:
  • Ветер - указаны скорость ветра в м/с - средняя за 10 мин, порывы в срок и между сроками (в фигурных скобках) и направление, откуда дует ветер: С - северный,
  • СВ - северо-восточный, В - восточный, ЮВ - юго-восточный, Ю - южный, ЮЗ - юго-западный, З - западный, СЗ - северо-западный.
  • Видимость - горизонтальная дальность видимости в метрах или километрах. При видимости от 1 до 10 км при отсутствии осадков обычно наблюдается дымка, при ухудшении видимости до 1 км и менее - туман. В сухую погоду видимость может ухудшаться дымом, пылью или мглою.
  • Явления - указаны атмосферные явления, наблюдавшиеся в срок или в последний час перед сроком; фигурными скобками обозначены явления, наблюдавшиеся между сроками (за 1-3 часа до срока); квадратными скобками обозначены град или гололедные отложения с указанием их диаметра в мм.
  • Облачность - указаны через наклонную черту общая и нижняя облачность в баллах и высота нижней границы облаков в метрах; квадратными скобками обозначены формы облаков: Ci - перистые, Cs - перисто-слоистые, Cc - перисто-кучевые, Ac - высококучевые, As - высокослоистые, Sc - слоисто-кучевые, Ns - слоисто-дождевые, Cu - кучевые, Cb - кучево-дождевые. Подробнее классификацию облаков см. в Атласе облаков (PDF).
  • T - Температура воздуха - температура, измеренная на высоте 2 м над землей.
  • Td - Температура точки росы - температура, при понижении до которой содержащийся в воздухе водяной пар достигнет насыщения.
  • f - Относительная влажность воздуха - влажноcть воздуха, измеренная на высоте 2 м над землей.
  • Te - Эффективная температура - температура, которую ощущает одетый по сезону человек в тени. Характеристика душности погоды. При расчете учитывается влияние влажности воздуха и скорости ветра на теплоощущения человека.
  • Tes - Эффективная температура на солнце - температура, которую ощущает человек, с поправкой на солнечный нагрев. Характеристика знойности погоды. Зависит от высоты солнца над горизонтом, облачности и скорости ветра. Ночью, в пасмурную погоду, а также при ветре 12 м/с и более поправка равна нулю.
  • P - Атмосферное давление - приведенное к уровню моря атмосферное давление.
  • Po - Атмосферное давление - измеренное на уровне метеостанции атмосферное давление.
  • Tmin - Минимальная температура - минимум температуры воздуха на высоте 2 м над землей.
  • Tmax - Максимальная температура - максимум температуры воздуха на высоте 2 м над землей.
  • R - Количество осадков - Количество выпавших осадков за период времени, мм. При наведении курсора мыши на число - период времени, за который выпало указанное количество осадков.
  • R24 - Количество осадков - Количество выпавших осадков за 24 часа, мм.
  • S - Снежный покров - Высота снежного покрова, см. При наведении курсора мыши на число - состояние снежного покрова и степень покрытия местности в баллах.